Tracking 19489 objects as of 22-Jan-2019
HD Live streaming from Space Station
objects crossing your sky now

LEMUR 2 TINYKEV

Track LEMUR 2 TINYKEV now!
10-day predictions
LEMUR 2 TINYKEV is classified as:


NORAD ID: 43883
Int'l Code: 2018-111H
Perigee: 576.7 km
Apogee: 593.8 km
Inclination: 97.7 °
Period: 96.2 minutes
Semi major axis: 6956 km
RCS: Unknown
Launch date: December 27, 2018
Source: United States (US)
Launch site: VOSTOCHNY COSMODROME (VOSTO)
aabbcc
Your satellite tracking list
Your tracking list is empty




NASA's NSSDC Master Catalog

Two Line Element Set (TLE):
1 43883U 18111H   19022.49322906  .00001231  00000-0  11372-3 0  9991
2 43883  97.7286 292.5887 0012349 149.5427 210.6514 14.96372349  1940
Source of the keplerian elements: AFSPC